Weather History for Beale AFB, CA

Change the Weather History Date:

Sunday, March 30, 2014

  Actual Average Record
Temperature  
Mean Temperature 52 °F -  
Max Temperature 62 °F 66 °F 82 °F (2001)
Min Temperature 42 °F 45 °F 39 °F (1999)
Degree Days  
Heating Degree Days 13    
Growing Degree Days 2 (Base 50)    
Moisture  
Dew Point 43 °F    
Average Humidity 73    
Maximum Humidity 93    
Minimum Humidity 48    
Precipitation  
Precipitation 0.00 in - - ()
Sea Level Pressure  
Sea Level Pressure 30.26 in    
Wind  
Wind Speed 9 mph (SE)    
Max Wind Speed 18 mph    
Max Gust Speed 26 mph    
Visibility 10 miles    
Events      
Averages and records for this station are not official NWS values.
T = Trace of Precipitation, MM = Missing Value Source: NWS Daily Summary

Daily Weather History Graph

Daily Weather History Graph

Search for Another Location

Airport:

Trip Planner

Search our weather history database for the weather conditions in past years. The results will help you decide how hot, cold, wet, or windy it might be!

Date:

Astronomy

Mar. 30, 2014 Rise Set
Actual Time 6:53 AM PDT 7:27 PM PDT
Civil Twilight 6:26 AM PDT 7:54 PM PDT
Nautical Twilight 5:54 AM PDT 8:26 PM PDT
Astronomical Twilight 5:22 AM PDT 8:58 PM PDT
Moon 6:42 AM PDT (3/30) 7:46 PM PDT (3/30)
Length of Visible Light 13h 28m
Length of Day
12h 34m
New Moon, 0% of the Moon is Illuminated
Mar 30
New Moon
Apr 7
First Quarter
Apr 15
Full
Apr 22
Last Quarter
Apr 28
New

Hourly Weather History & Observations

Time (PDT) Temp. Windchill Dew Point Humidity Pressure Visibility Wind Dir Wind Speed Gust Speed Precip Events Conditions
12:58 AM 46.4 °F 42.4 °F 44.6 °F 93% 30.23 in 10.0 mi SE 8.1 mph - N/A   Mostly Cloudy
1:43 AM 48.2 °F - 46.4 °F 93% 30.01 in 10.0 mi East 8.1 mph - N/A   Light Drizzle
1:44 AM 48.2 °F - 46.4 °F 93% 30.01 in 10.0 mi East 9.2 mph - N/A   Mostly Cloudy
1:58 AM 50.0 °F - 46.4 °F 87% 30.25 in 10.0 mi NNE 10.4 mph - 0.00 in   Mostly Cloudy
2:58 AM 48.2 °F - 42.8 °F 82% 30.24 in 10.0 mi East 12.7 mph - N/A   Partly Cloudy
3:58 AM 44.6 °F 40.2 °F 42.8 °F 93% 30.25 in 10.0 mi ESE 8.1 mph - N/A   Clear
4:58 AM 44.6 °F 40.2 °F 41.0 °F 87% 30.25 in 10.0 mi East 8.1 mph - N/A   Clear
5:58 AM 42.8 °F 38.6 °F 39.2 °F 87% 30.27 in 10.0 mi East 6.9 mph - N/A   Clear
6:58 AM 42.8 °F - 39.2 °F 87% 30.29 in 10.0 mi ENE 2.3 mph - N/A   Clear
7:58 AM 44.6 °F - 41.0 °F 87% 30.31 in 10.0 mi Calm Calm - N/A   Clear
8:58 AM 50.0 °F - 41.0 °F 71% 30.32 in 10.0 mi ESE 4.6 mph - N/A   Clear
9:58 AM 55.4 °F - 44.6 °F 67% 30.32 in 10.0 mi South 9.2 mph - N/A   Clear
10:58 AM 57.2 °F - 44.6 °F 63% 30.33 in 10.0 mi South 10.4 mph - N/A   Clear
11:58 AM 59.0 °F - 46.4 °F 63% 30.33 in 10.0 mi South 10.4 mph - N/A   Scattered Clouds
12:58 PM 60.8 °F - 44.6 °F 55% 30.32 in 10.0 mi South 11.5 mph - N/A   Scattered Clouds
1:58 PM 60.8 °F - 42.8 °F 52% 30.31 in 10.0 mi SSW 9.2 mph - N/A   Mostly Cloudy
2:58 PM 62.6 °F - 42.8 °F 48% 30.30 in 10.0 mi South 11.5 mph - N/A   Scattered Clouds
3:58 PM 60.8 °F - 42.8 °F 52% 30.28 in 10.0 mi South 11.5 mph - N/A   Mostly Cloudy
4:58 PM 60.8 °F - 42.8 °F 52% 30.28 in 10.0 mi SSW 9.2 mph - N/A   Mostly Cloudy
5:01 PM 60.8 °F - 44.6 °F 55% 30.05 in 10.0 mi WSW 18.4 mph 26.5 mph N/A   Mostly Cloudy
5:58 PM 57.2 °F - 46.4 °F 67% 30.26 in 10.0 mi North 2.3 mph - N/A   Mostly Cloudy
6:58 PM 55.4 °F - 46.4 °F 72% 30.26 in 10.0 mi East 4.6 mph - N/A   Overcast
7:58 PM 55.4 °F - 44.6 °F 67% 30.27 in 10.0 mi South 11.5 mph - N/A   Mostly Cloudy
8:58 PM 53.6 °F - 42.8 °F 67% 30.29 in 10.0 mi SSE 13.8 mph - N/A   Overcast
9:58 PM 48.2 °F - 42.8 °F 82% 30.29 in 10.0 mi SSE 10.4 mph - N/A   Clear
10:58 PM 46.4 °F 41.9 °F 41.0 °F 81% 30.29 in 10.0 mi SE 9.2 mph - N/A   Clear
11:58 PM 48.2 °F - 39.2 °F 71% 30.29 in 10.0 mi SE 10.4 mph - N/A   Clear